Location: Invercargill
(46.4000°S, 168.3500°E)
Time: 09:37:44
(UTC+13:00)

Cosmos 1707 Rocket - Pass Details

Date: 24 January 2019
Orbit: 604 x 633 km, 82.5° (Epoch: 19 February)

Event Time Altitude Azimuth Distance (km) Brightness Sun altitude
Exits shadow 22:55:33 19° 40° (NE) 1,481 4.8 -12.5°
Maximum altitude 22:57:56 32° 90° (E) 1,073 4.4 -12.7°
Drops below altitude 10° 23:01:50 10° 152° (SSE) 1,995 6.4 -13.2°
Sets 23:04:15 0° 162° (SSE) 2,911 7.4 -13.5°
